This demonstration page uses our WeatherBlox Daily Observations layout. Learn more.

Left ArrowRight Arrow

39.12711, -84.51439

Hourly Observations for June 14, 2018

Temp ( °F °C ) Dew Point ( °F °C ) Humidity (%) Winds ( mph kmh ) Pressure ( in mb ) Visibility ( mi km ) Precip ( " mm )
12:53 am 00:53 Partly Cloudy 71 21.7 67 19.4 87 87 NNE 5 7 30.00 1016 10 16 N/A
1:53 am 01:53 Cloudy 70 21.1 62 16.7 76 76 N 8 13 30.00 1016 10 16 N/A
2:53 am 02:53 Clear 69 20.6 57 13.9 66 66 N 6 9 30.01 1016 10 16 N/A
3:53 am 03:53 Clear 66 18.9 57 13.9 73 73 N 6 9 30.00 1016 10 16 N/A
4:53 am 04:53 Clear 62 16.7 59 15 90 90 N N/A 30.01 1016 10 16 N/A
5:53 am 05:53 Clear 59 15 58 14.4 96 96 N N/A 30.03 1017 10 16 N/A
6:53 am 06:53 Sunny 59 15 58 14.4 96 96 N N/A 30.04 1017 10 16 N/A
7:53 am 07:53 Sunny 64 17.8 59 15 84 84 N N/A 30.06 1018 10 16 N/A
8:53 am 08:53 Sunny 69 20.6 57 13.9 66 66 NE 3 6 30.06 1018 10 16 N/A
9:53 am 09:53 Sunny 71 21.7 58 14.4 63 63 VRB 3 6 30.07 1018 10 16 N/A
10:53 am 10:53 Sunny 75 23.9 60 15.6 60 60 NNE 5 7 30.07 1018 10 16 N/A
11:53 am 11:53 Sunny 78 25.6 59 15 52 52 VRB 3 6 30.07 1018 10 16 N/A
12:53 pm 12:53 Sunny 80 26.7 57 13.9 45 45 NE 8 13 30.06 1018 10 16 N/A
1:53 pm 13:53 Sunny 81 27.2 58 14.4 45 45 NNE 9 15 30.05 1018 10 16 N/A
2:53 pm 14:53 Sunny 82 27.8 54 12.2 38 38 VRB 3 6 30.05 1018 10 16 N/A
3:53 pm 15:53 Sunny 83 28.3 55 12.8 38 38 N N/A 30.03 1017 10 16 N/A
4:53 pm 16:53 Sunny 84 28.9 53 11.7 34 34 ENE 5 7 30.02 1017 10 16 N/A
5:53 pm 17:53 Sunny 84 28.9 51 10.6 32 32 N N/A 30.01 1016 10 16 N/A
6:53 pm 18:53 Sunny 83 28.3 54 12.2 37 37 N N/A 29.99 1016 10 16 N/A
7:53 pm 19:53 Sunny 78 25.6 61 16.1 56 56 NE 5 7 29.99 1016 10 16 N/A
8:53 pm 20:53 Sunny 73 22.8 63 17.2 71 71 N N/A 29.99 1016 10 16 N/A
9:53 pm 21:53 Clear 69 20.6 62 16.7 78 78 N N/A 30.00 1016 10 16 N/A
10:53 pm 22:53 Clear 66 18.9 62 16.7 87 87 N N/A 30.03 1017 10 16 N/A
11:53 pm 23:53 Clear 64 17.8 61 16.1 90 90 SW 3 6 30.02 1017 10 16 N/A

Powered by AerisWeather